Theta_e
308 310 310 310 310 310 310 310 310 310 310 310 308 308 309 310 310 311 313 314 314 314 317 319 320 321 322 324 324 324 322 325 330 331 331 332 331 332 327 337 339 344 345 355 355
310 310 310 310 310 310 310 310 310 310 310 309 308 308 309 310 312 316 317 315 314 316 315 317 319 321 323 323 323 322 321 326 327 328 330 331 332 332 325 325 332 335 340 351 356
310 310 310 310 309 309 309 309 310 310 309 308 308 309 311 318 324 320 319 320 318 317 317 316 317 319 322 322 323 323 322 324 330 330 329 331 332 332 326 324 323 329 330 340 354
309 308 308 308 308 308 309 309 309 308 307 308 311 312 315 319 321 319 316 315 321 319 318 318 316 320 319 321 322 323 323 326 327 328 329 330 332 328 329 330 329 325 323 324 335
309 308 308 309 310 310 311 311 312 313 314 314 314 315 317 320 319 316 316 313 316 318 318 318 316 321 320 320 322 321 322 323 325 326 328 328 331 329 328 327 326 324 325 325 322
314 315 315 315 315 315 315 315 315 315 315 315 315 316 317 320 319 318 318 318 319 315 313 316 318 321 319 320 321 323 323 323 322 323 328 326 328 327 330 326 325 324 326 326 325
316 316 316 316 315 315 315 315 315 314 314 315 316 317 318 319 319 318 318 318 318 318 319 317 317 317 319 318 320 320 321 318 320 321 322 325 322 321 329 327 325 323 324 325 322
316 317 316 316 315 315 315 315 316 315 315 315 316 319 322 322 319 318 318 318 318 318 318 318 319 318 318 319 317 319 316 318 317 319 322 323 321 321 325 323 322 322 321 323 324
314 316 316 316 316 315 315 316 318 316 316 316 316 317 320 320 318 318 318 317 318 318 318 318 317 317 317 315 314 313 318 319 319 319 320 320 319 320 323 322 321 320 325 327 328
310 313 316 316 316 316 315 320 322 320 318 318 319 318 320 320 318 317 317 318 318 318 318 318 317 311 309 313 317 317 319 318 320 320 318 317 318 319 321 321 319 325 328 329 329
311 311 313 315 315 315 317 319 320 321 320 320 320 319 320 319 318 318 318 318 318 318 315 316 314 314 312 312 315 316 316 317 316 317 317 316 317 318 320 320 321 328 329 332 332
309 312 311 312 314 314 318 319 319 320 320 320 320 320 320 319 319 318 318 317 317 315 316 314 314 315 314 314 314 315 316 315 316 319 316 318 319 318 319 320 322 328 331 333 334
309 310 312 311 312 316 319 319 319 319 319 320 321 322 318 317 317 318 317 318 317 316 315 315 316 317 316 317 317 316 316 320 321 319 318 317 317 314 319 322 320 328 331 335 333
310 310 311 311 317 320 318 320 319 319 317 321 321 319 318 317 318 319 319 319 319 319 317 315 316 319 318 320 317 318 318 319 318 318 320 315 317 316 320 324 325 328 331 333 334
313 309 310 311 317 316 320 320 319 320 324 325 317 318 318 318 319 320 319 321 319 319 318 318 318 318 317 317 318 319 318 317 317 315 314 316 316 322 319 322 320 322 324 329 332
313 311 310 312 315 320 320 319 319 321 329 322 317 316 316 317 318 319 320 320 319 319 318 320 318 317 317 316 316 317 316 312 312 311 316 317 321 324 322 323 322 321 320 320 320
313 312 310 311 317 320 320 320 318 322 323 324 316 316 315 316 318 319 318 317 317 318 318 319 318 317 316 315 313 312 313 315 317 316 316 315 323 323 322 320 319 315 312 312 315
313 312 311 311 314 320 321 316 322 324 327 319 318 317 316 317 317 319 318 317 317 317 318 320 320 317 316 315 315 315 315 316 323 317 313 319 322 320 313 312 312 312 311 312 312
313 311 312 316 319 320 323 321 321 324 321 320 318 318 318 318 317 318 318 318 317 315 317 317 321 319 319 316 314 314 315 312 311 311 318 318 317 313 313 313 312 311 310 310 310
312 312 319 319 320 322 320 322 324 323 321 320 320 319 318 318 317 319 319 318 318 318 315 319 316 318 319 317 317 315 314 314 311 318 318 318 316 314 313 312 310 309 309 309 309
312 317 322 322 322 322 312 318 323 323 320 319 319 320 320 319 320 321 320 318 318 319 317 318 316 315 316 317 318 315 315 311 311 313 316 318 316 314 312 310 308 308 308 308 308
313 312 322 323 318 314 316 319 321 320 319 319 319 320 319 319 320 321 321 319 318 319 319 314 313 315 317 316 316 313 313 312 313 316 313 312 312 311 309 309 308 307 307 307 307
313 317 319 321 314 312 316 320 321 320 319 319 320 318 317 318 317 320 320 318 318 316 317 313 311 310 309 316 315 314 316 313 310 309 314 312 311 311 311 310 308 307 307 307 306
314 314 317 319 316 316 316 319 318 318 317 317 317 318 318 317 314 319 320 318 315 315 313 311 308 307 306 315 315 317 314 313 309 306 310 312 313 312 310 309 308 307 306 305 304
312 311 312 311 314 314 314 315 318 318 317 317 317 318 316 318 318 318 318 317 315 317 316 312 315 317 316 317 317 316 314 312 311 310 311 312 314 312 309 308 308 306 305 303 302
308 308 308 310 314 314 313 317 318 317 316 316 318 317 316 317 316 318 317 318 318 315 317 311 314 315 316 318 317 315 314 314 315 314 314 313 313 310 310 309 307 305 303 302 301
307 307 308 313 313 312 311 316 316 315 315 316 318 317 317 316 316 316 315 315 315 314 312 312 311 309 314 316 313 311 314 316 315 313 313 314 312 309 308 307 305 304 302 302 301
Wind_Speed
7 7 7 7 6 5 4 4 3 4 4 4 4 5 6 7 9 10 11 7 5 8 7 4 3 5 6 3 3 3 4 1 3 1 3 4 3 16 13 19 16 20 15 13 20
9 8 7 7 7 5 3 2 2 1 1 2 3 4 5 6 7 6 3 3 3 3 9 4 2 4 2 2 2 4 4 8 4 4 1 4 2 5 13 20 10 10 9 8 18
11 10 9 8 7 6 4 3 2 1 1 2 2 3 4 6 3 3 5 3 4 6 3 2 3 3 0 2 4 3 5 7 8 14 9 7 8 4 6 5 3 7 10 8 18
13 12 11 10 9 8 6 6 5 4 4 4 4 3 4 5 1 7 8 4 7 6 4 2 2 3 1 2 3 1 9 9 8 9 11 4 6 8 10 6 7 4 9 15 16
15 15 14 14 13 12 11 10 9 8 6 5 4 4 6 4 3 8 11 6 3 7 8 6 2 2 1 2 2 6 5 4 14 8 13 19 14 12 8 5 5 6 3 3 12
15 14 14 13 12 12 11 9 8 6 5 4 4 7 8 3 3 5 7 8 7 2 2 9 6 3 6 4 3 4 9 12 13 12 24 11 13 6 16 10 3 10 9 11 13
11 11 10 11 11 11 10 10 9 7 4 4 6 10 8 3 2 5 7 9 8 9 4 2 6 8 2 3 4 6 3 7 9 6 8 12 3 6 22 9 10 12 10 16 9
8 8 8 8 9 10 11 11 9 6 4 5 8 12 6 5 7 2 6 9 8 8 3 3 7 9 5 4 5 3 5 2 6 1 4 14 9 15 21 14 13 7 12 15 11
8 7 7 8 8 10 11 12 9 6 5 7 9 7 8 5 3 1 4 7 9 5 3 3 4 1 3 4 5 6 1 2 8 2 1 5 9 8 17 14 9 9 18 22 22
11 8 8 8 9 9 12 12 6 6 7 11 6 6 3 11 6 3 3 4 4 4 2 0 2 3 4 4 4 4 2 3 5 6 3 4 19 5 17 15 10 19 25 27 27
14 10 9 10 9 8 8 10 10 3 18 14 16 17 21 9 7 2 4 2 1 2 2 4 4 6 10 7 5 2 3 4 7 6 1 5 6 6 4 10 20 24 27 28 27
18 12 9 9 9 6 6 8 15 9 10 16 11 16 15 11 8 8 4 4 2 2 1 5 5 9 6 3 4 3 3 7 8 3 4 2 4 5 6 2 18 29 27 28 27
21 15 10 7 6 3 6 10 14 13 3 10 6 8 8 8 6 6 7 3 4 1 4 6 8 10 4 1 3 2 3 2 4 3 2 4 7 8 15 17 7 16 19 23 23
22 16 10 6 3 4 4 14 9 6 4 6 3 4 7 6 3 6 3 2 1 2 1 5 8 2 4 3 3 3 2 2 1 3 1 4 3 10 15 15 15 20 19 18 21
23 19 10 6 7 3 7 7 6 1 2 2 3 2 4 6 2 1 2 1 2 3 5 5 1 4 6 2 2 4 2 2 2 4 5 7 6 10 7 11 10 17 27 24 23
23 21 11 8 7 1 5 5 3 5 3 3 5 4 3 3 4 3 2 2 3 3 4 3 2 3 0 3 4 3 4 8 5 3 4 6 5 7 4 2 9 23 27 27 30
26 20 11 9 7 2 5 3 4 3 4 3 4 3 4 3 2 4 4 6 3 4 6 7 5 5 5 5 6 9 6 3 4 5 3 4 8 3 3 10 15 19 26 30 28
27 19 9 7 9 4 2 4 3 3 5 3 2 3 5 5 2 3 3 4 7 5 3 4 5 6 8 3 1 4 5 5 2 2 3 4 6 5 14 21 24 27 28 29 28
28 15 4 6 9 3 2 3 6 4 3 5 4 6 6 4 5 5 4 2 4 4 5 3 3 5 5 3 3 1 5 3 6 3 4 1 5 12 11 14 21 22 26 25 22
27 13 4 10 7 4 4 4 4 4 4 4 3 3 4 6 3 4 2 2 2 6 2 1 3 3 6 7 7 6 3 4 4 2 3 1 4 1 5 9 12 18 22 19 19
19 5 2 12 7 2 3 6 4 10 2 3 2 3 4 3 3 3 2 3 2 2 9 2 3 6 3 5 3 5 4 6 5 4 5 4 4 5 2 4 6 13 17 17 18
13 3 2 13 2 2 2 5 4 3 4 6 4 3 3 4 4 3 3 1 3 1 3 2 4 1 3 6 4 5 4 4 5 3 2 4 5 6 6 4 7 14 17 14 18
19 6 8 9 1 3 6 5 4 2 3 3 3 2 4 2 5 3 4 6 7 4 2 3 3 3 8 6 6 6 5 4 4 3 4 5 4 6 2 6 12 20 20 19 24
10 4 5 5 5 2 4 3 1 6 6 9 5 5 4 5 7 3 3 5 5 5 8 5 3 5 5 3 3 3 5 3 4 3 3 4 6 1 3 5 11 17 13 18 24
7 3 4 4 3 5 3 4 3 2 5 12 5 5 3 3 3 3 3 2 5 4 4 4 3 2 2 2 1 1 4 6 3 0 3 3 5 4 4 5 7 13 14 20 25
7 6 8 7 11 5 3 4 3 3 5 3 6 4 4 5 4 4 3 1 2 4 3 3 2 1 1 3 5 4 7 7 6 5 6 5 2 1 8 13 16 14 18 27 29
8 5 5 6 8 2 3 2 2 6 9 7 10 4 4 4 4 1 2 1 2 6 2 3 4 3 2 4 4 4 3 3 4 3 5 2 2 2 6 11 18 13 20 24 23
Wind_Direction
26 15 4 356 349 335 317 297 283 266 273 299 307 300 305 306 302 294 286 280 277 244 246 264 248 225 244 256 232 178 68 181 262 230 197 356 358 15 47 94 98 193 245 208 179
28 20 16 14 13 12 2 330 298 268 270 308 314 327 335 324 309 306 338 304 193 230 221 260 253 243 185 167 189 121 130 205 237 296 270 239 355 67 32 76 101 131 112 167 183
29 28 24 22 20 24 30 40 53 57 19 34 25 15 2 351 347 28 360 294 218 218 208 241 281 321 351 181 210 169 185 199 232 260 285 310 334 148 88 25 98 148 140 153 192
33 34 35 35 36 37 42 47 50 58 65 67 59 43 1 357 151 346 326 271 230 231 249 281 266 147 42 226 198 155 250 207 251 270 303 237 152 230 189 175 299 271 164 157 177
42 46 49 52 54 53 53 55 58 59 59 52 50 24 359 326 345 42 39 45 220 240 250 248 241 189 190 254 211 184 256 252 273 231 261 278 273 268 230 135 163 200 272 283 150
46 49 50 50 49 45 38 34 33 33 33 39 29 351 334 308 35 15 13 22 18 37 224 195 198 163 286 231 169 240 252 279 284 244 214 192 251 286 216 189 255 230 253 252 247
38 38 40 39 36 32 24 18 16 15 23 25 358 340 311 298 278 307 318 332 331 335 342 229 257 267 314 294 259 262 280 324 292 294 217 197 337 236 238 275 275 192 200 204 228
17 17 16 15 14 11 5 0 358 358 357 348 340 336 281 290 279 271 316 342 348 332 333 7 259 293 209 280 356 353 45 357 291 256 202 164 220 242 239 241 242 177 157 165 196
349 343 343 345 347 353 353 350 342 333 318 319 313 324 292 283 276 240 296 305 325 322 305 309 287 280 358 66 9 5 209 233 316 213 92 167 255 199 205 208 229 166 149 123 116
348 320 315 321 327 337 343 348 333 302 307 317 309 315 273 325 278 286 238 297 283 10 75 107 8 47 34 68 237 260 333 300 262 314 12 278 249 231 205 208 140 144 132 124 115
351 334 301 302 310 323 340 359 357 344 314 274 274 279 290 320 269 287 209 299 34 349 51 1 50 249 237 202 200 209 227 262 281 268 31 289 254 193 99 118 121 140 136 127 122
351 338 320 290 293 306 316 352 360 307 306 306 292 275 276 278 292 302 234 218 142 235 35 7 253 243 240 190 217 247 345 309 294 295 181 325 27 353 38 19 155 147 139 136 127
351 340 326 304 290 276 316 22 353 337 270 295 269 266 265 219 230 261 196 204 199 245 206 190 247 337 146 287 263 241 192 194 236 345 325 30 344 24 354 15 138 132 128 127 117
351 340 320 302 272 281 34 340 338 323 51 278 251 260 232 233 273 234 182 214 91 268 94 212 300 76 97 87 115 89 212 211 8 62 252 21 281 17 0 40 51 69 82 103 100
350 338 315 276 239 283 322 339 320 352 24 247 226 244 182 178 212 245 198 182 336 312 75 277 6 58 62 344 143 196 181 353 128 94 73 0 75 317 355 23 20 55 73 79 87
347 334 312 266 229 276 330 311 314 46 264 295 185 201 137 202 213 86 77 110 71 85 6 332 345 58 61 60 41 22 55 38 52 80 56 292 127 343 9 360 73 73 62 65 78
343 333 307 251 198 294 309 296 48 147 334 305 217 181 189 217 87 68 42 24 47 41 358 344 345 324 27 23 17 49 53 346 18 24 189 289 57 162 21 50 64 67 62 66 74
340 333 303 241 214 245 290 58 178 252 266 298 339 149 181 154 107 87 81 52 24 51 68 53 342 3 339 78 181 35 123 142 147 165 190 17 144 45 64 67 66 68 68 70 61
335 338 299 170 176 192 135 80 208 214 275 344 15 48 355 18 111 93 63 78 22 24 112 46 293 333 31 345 90 356 41 182 105 11 74 87 81 46 41 48 47 51 51 49 46
335 338 129 178 194 220 82 228 243 232 323 70 86 11 52 352 73 95 70 347 102 18 143 146 351 1 309 37 20 91 147 45 13 124 104 282 78 136 350 23 29 26 25 24 21
339 340 101 185 206 189 159 230 280 290 302 88 135 63 55 8 53 68 28 360 44 48 65 77 102 297 9 24 304 349 23 52 107 120 153 176 253 147 98 36 21 7 11 11 7
353 344 47 172 112 34 179 209 235 246 81 37 82 85 97 45 44 79 132 110 359 20 56 8 124 281 242 298 333 93 87 92 112 229 78 138 245 130 138 104 29 5 5 1 346
338 310 30 198 127 308 286 272 245 120 40 77 67 69 50 82 94 71 61 28 50 59 117 176 31 20 353 357 5 37 5 70 99 63 196 135 237 150 86 19 8 358 353 344 338
345 348 345 78 86 51 333 290 86 58 52 74 51 64 79 40 19 101 106 18 57 86 69 85 87 141 179 221 236 336 4 353 112 104 210 220 162 193 343 333 334 338 326 330 335
354 340 358 316 338 338 263 296 107 54 77 38 39 26 107 83 53 73 76 126 47 37 57 86 109 133 196 265 359 22 357 17 109 201 165 166 120 186 208 236 277 316 322 337 339
6 360 341 294 303 314 341 336 111 76 42 26 94 27 78 119 168 173 146 147 164 28 69 33 161 97 71 355 1 88 30 88 66 84 72 89 103 327 298 326 330 337 341 345 343
11 336 322 303 327 10 295 282 59 115 44 116 148 95 75 156 150 153 277 254 155 146 124 97 118 82 256 335 346 2 338 85 92 27 133 189 210 296 307 317 322 327 346 342 338